SKYSAT-C11 (42987 NORAD) Tracking and Keplerian Element Data

This shows tracking and keplerian element data for the satellite.

Feedback or suggestion? Click here.




ElementValue
Catalog42987
NameSKYSAT-C11
Epoch Orbit36917
Epoch Day159.6250096
Epoch Year2024
RAAN285.9023
Inclination97.3581
Eccentricity0.0002227
Argument of Perigee0.7625
Mean Anonmoly359.3624
Mean Motion15.39334088
Decay Rate0.0002385
L11 42987U 17068A 24159.62500960 .00023850 00000+0 61191-3 0 9999
L22 42987 97.3581 285.9023 0002227 0.7625 359.3624 15.39334088369179



Live tracking and technical data element details for SKYSAT-C11 (NORAD 42987). SKYSAT-C11 can be tracked NOW for your location showing map with azimuth and elevation plus other details from your city location.







IsCatalogInMostPopularTable: catalog: 42987, numindb: 643
Update: records affected: 1



GetName: 42987 SKYSAT-C11

Hit Count: updated at: Mon, 17 Jun 2024 22:31:12 GMT